Time,TemperatureF,DewpointF,PressureIn,WindDirection,WindDirectionDegrees,WindSpeedMPH,WindSpeedGustMPH,Humidity,HourlyPrecipIn,Conditions,Clouds,dailyrainin,SoftwareType,DateUTC
2013-04-03 00:00:00,29.3,20.7,30.10,West,271,4.0,13.0,70,0.00,,,0.00,Wunderground v.1.15,2013-04-03 04:00:00,
2013-04-03 00:11:00,29.4,21.2,30.10,WSW,242,3.0,13.0,71,0.00,,,0.00,Wunderground v.1.15,2013-04-03 04:11:00,
2013-04-03 00:20:00,29.5,20.9,30.10,West,276,4.0,4.0,70,0.00,,,0.00,Wunderground v.1.15,2013-04-03 04:20:00,
2013-04-03 00:30:00,29.1,21.2,30.10,WSW,246,3.0,3.0,72,0.00,,,0.00,Wunderground v.1.15,2013-04-03 04:30:00,
2013-04-03 00:40:00,29.3,21.1,30.10,WNW,290,4.0,13.0,71,0.00,,,0.00,Wunderground v.1.15,2013-04-03 04:40:00,
2013-04-03 00:51:00,29.3,21.1,30.11,WNW,286,4.0,13.0,71,0.00,,,0.00,Wunderground v.1.15,2013-04-03 04:51:00,
2013-04-03 01:01:00,29.4,20.8,30.11,West,261,4.0,4.0,70,0.00,,,0.00,Wunderground v.1.15,2013-04-03 05:01:00,
2013-04-03 01:10:00,29.3,21.4,30.10,WNW,293,5.0,13.0,72,0.00,,,0.00,Wunderground v.1.15,2013-04-03 05:10:00,
2013-04-03 01:21:00,29.2,21.6,30.11,SW,217,7.0,7.0,73,0.00,,,0.00,Wunderground v.1.15,2013-04-03 05:21:00,
2013-04-03 01:31:00,29.2,21.6,30.11,West,266,9.0,13.0,73,0.00,,,0.00,Wunderground v.1.15,2013-04-03 05:31:00,
2013-04-03 01:41:00,28.9,21.7,30.11,WSW,257,8.0,13.0,74,0.00,,,0.00,Wunderground v.1.15,2013-04-03 05:41:00,
2013-04-03 01:51:00,28.6,22.0,30.11,West,274,6.0,6.0,76,0.00,,,0.00,Wunderground v.1.15,2013-04-03 05:51:00,
2013-04-03 02:01:00,28.6,22.0,30.11,West,265,5.0,5.0,76,0.00,,,0.00,Wunderground v.1.15,2013-04-03 06:01:00,
2013-04-03 02:11:00,28.6,21.7,30.11,West,259,5.0,5.0,75,0.00,,,0.00,Wunderground v.1.15,2013-04-03 06:11:00,
2013-04-03 02:20:00,28.6,21.0,30.11,West,265,6.0,13.0,73,0.00,,,0.00,Wunderground v.1.15,2013-04-03 06:20:00,
2013-04-03 02:30:00,28.6,20.7,30.11,West,275,6.0,13.0,72,0.00,,,0.00,Wunderground v.1.15,2013-04-03 06:30:00,
2013-04-03 02:40:00,29.0,20.4,30.11,North,351,6.0,13.0,70,0.00,,,0.00,Wunderground v.1.15,2013-04-03 06:40:00,
2013-04-03 02:50:00,29.1,20.2,30.10,West,273,5.0,13.0,69,0.00,,,0.00,Wunderground v.1.15,2013-04-03 06:50:00,
2013-04-03 03:00:00,29.0,19.4,30.10,WNW,282,6.0,6.0,67,0.00,,,0.00,Wunderground v.1.15,2013-04-03 07:00:00,
2013-04-03 03:10:00,29.2,18.9,30.10,North,355,7.0,7.0,65,0.00,,,0.00,Wunderground v.1.15,2013-04-03 07:10:00,
2013-04-03 03:20:00,29.2,18.5,30.11,WNW,288,6.0,6.0,64,0.00,,,0.00,Wunderground v.1.15,2013-04-03 07:20:00,
2013-04-03 03:30:00,28.9,18.2,30.10,West,281,5.0,13.0,64,0.00,,,0.00,Wunderground v.1.15,2013-04-03 07:30:00,
2013-04-03 03:40:00,28.8,18.1,30.10,WNW,282,6.0,13.0,64,0.00,,,0.00,Wunderground v.1.15,2013-04-03 07:40:00,
2013-04-03 03:50:00,28.8,18.1,30.10,West,275,6.0,6.0,64,0.00,,,0.00,Wunderground v.1.15,2013-04-03 07:50:00,
2013-04-03 04:00:00,28.9,18.6,30.10,WNW,289,6.0,6.0,65,0.00,,,0.00,Wunderground v.1.15,2013-04-03 08:00:00,
2013-04-03 04:10:00,28.8,18.9,30.10,West,260,4.0,13.0,66,0.00,,,0.00,Wunderground v.1.15,2013-04-03 08:10:00,
2013-04-03 04:20:00,28.6,18.7,30.11,WSW,240,5.0,5.0,66,0.00,,,0.00,Wunderground v.1.15,2013-04-03 08:20:00,
2013-04-03 04:30:00,28.3,18.7,30.11,WSW,247,6.0,13.0,67,0.00,,,0.00,Wunderground v.1.15,2013-04-03 08:30:00,
2013-04-03 04:41:00,28.3,18.0,30.11,North,360,7.0,13.0,65,0.00,,,0.00,Wunderground v.1.15,2013-04-03 08:41:00,
2013-04-03 04:50:00,28.3,18.0,30.12,West,270,6.0,6.0,65,0.00,,,0.00,Wunderground v.1.15,2013-04-03 08:50:00,
2013-04-03 05:00:00,28.3,18.0,30.12,WNW,296,5.0,5.0,65,0.00,,,0.00,Wunderground v.1.15,2013-04-03 09:00:00,
2013-04-03 05:11:00,28.0,18.5,30.13,West,261,5.0,5.0,67,0.00,,,0.00,Wunderground v.1.15,2013-04-03 09:11:00,
2013-04-03 05:20:00,27.9,18.4,30.13,West,261,5.0,13.0,67,0.00,,,0.00,Wunderground v.1.15,2013-04-03 09:20:00,
2013-04-03 05:31:00,27.5,18.0,30.13,WSW,256,5.0,13.0,67,0.00,,,0.00,Wunderground v.1.15,2013-04-03 09:31:00,
2013-04-03 05:41:00,27.5,18.0,30.14,West,266,6.0,6.0,67,0.00,,,0.00,Wunderground v.1.15,2013-04-03 09:41:00,
2013-04-03 05:51:00,27.3,17.8,30.14,WNW,282,6.0,13.0,67,0.00,,,0.00,Wunderground v.1.15,2013-04-03 09:51:00,
2013-04-03 06:01:00,27.1,17.9,30.15,NNW,339,5.0,6.0,68,0.00,,,0.00,Wunderground v.1.15,2013-04-03 10:01:00,
2013-04-03 06:11:00,26.9,18.1,30.15,WSW,252,5.0,5.0,69,0.00,,,0.00,Wunderground v.1.15,2013-04-03 10:11:00,
2013-04-03 06:20:00,26.6,18.1,30.15,WNW,300,5.0,5.0,70,0.00,,,0.00,Wunderground v.1.15,2013-04-03 10:20:00,
2013-04-03 06:30:00,26.7,18.2,30.15,West,263,4.0,5.0,70,0.00,,,0.00,Wunderground v.1.15,2013-04-03 10:30:00,
2013-04-03 06:40:00,26.8,18.0,30.15,West,259,5.0,5.0,69,0.00,,,0.00,Wunderground v.1.15,2013-04-03 10:40:00,
2013-04-03 06:50:00,26.5,18.0,30.16,WSW,252,4.0,4.0,70,0.00,,,0.00,Wunderground v.1.15,2013-04-03 10:50:00,
2013-04-03 07:00:00,26.4,18.3,30.16,West,269,4.0,4.0,71,0.00,,,0.00,Wunderground v.1.15,2013-04-03 11:00:00,
2013-04-03 07:10:00,26.7,18.2,30.17,WNW,286,5.0,5.0,70,0.00,,,0.00,Wunderground v.1.15,2013-04-03 11:10:00,
2013-04-03 07:20:00,26.7,17.9,30.17,WNW,294,5.0,15.0,69,0.00,,,0.00,Wunderground v.1.15,2013-04-03 11:20:00,
2013-04-03 07:29:00,26.9,18.1,30.17,NW,313,5.0,5.0,69,0.00,,,0.00,Wunderground v.1.15,2013-04-03 11:29:00,
2013-04-03 07:40:00,27.3,17.8,30.18,NNW,329,5.0,15.0,67,0.00,,,0.00,Wunderground v.1.15,2013-04-03 11:40:00,
2013-04-03 07:50:00,27.5,17.6,30.18,West,266,7.0,7.0,66,0.00,,,0.00,Wunderground v.1.15,2013-04-03 11:50:00,
2013-04-03 08:00:00,28.1,17.8,30.19,SW,233,4.0,15.0,65,0.00,,,0.00,Wunderground v.1.15,2013-04-03 12:00:00,
2013-04-03 08:10:00,28.6,17.6,30.18,WNW,288,7.0,15.0,63,0.00,,,0.00,Wunderground v.1.15,2013-04-03 12:10:00,
2013-04-03 08:20:00,28.9,18.2,30.19,WNW,282,7.0,7.0,64,0.00,,,0.00,Wunderground v.1.15,2013-04-03 12:20:00,
2013-04-03 08:30:00,29.2,18.9,30.19,WSW,239,7.0,15.0,65,0.00,,,0.00,Wunderground v.1.15,2013-04-03 12:30:00,
2013-04-03 08:40:00,29.5,19.5,30.19,WNW,295,8.0,8.0,66,0.00,,,0.00,Wunderground v.1.15,2013-04-03 12:40:00,
2013-04-03 08:50:00,29.7,19.0,30.19,WNW,290,8.0,8.0,64,0.00,,,0.00,Wunderground v.1.15,2013-04-03 12:50:00,
2013-04-03 09:00:00,30.4,19.7,30.19,NNW,346,6.0,15.0,64,0.00,,,0.00,Wunderground v.1.15,2013-04-03 13:00:00,
2013-04-03 09:10:00,30.2,19.5,30.19,NNW,331,8.0,8.0,64,0.00,,,0.00,Wunderground v.1.15,2013-04-03 13:10:00,
2013-04-03 09:20:00,30.7,20.0,30.18,West,268,8.0,8.0,64,0.00,,,0.00,Wunderground v.1.15,2013-04-03 13:20:00,
2013-04-03 09:30:00,30.4,20.0,30.19,WSW,250,8.0,8.0,65,0.00,,,0.00,Wunderground v.1.15,2013-04-03 13:30:00,
2013-04-03 09:40:00,31.0,19.9,30.19,North,360,8.0,8.0,63,0.00,,,0.00,Wunderground v.1.15,2013-04-03 13:40:00,
2013-04-03 09:50:00,31.1,19.2,30.19,West,277,8.0,15.0,61,0.00,,,0.00,Wunderground v.1.15,2013-04-03 13:50:00,
2013-04-03 10:00:00,31.0,18.7,30.19,West,269,8.0,15.0,60,0.00,,,0.00,Wunderground v.1.15,2013-04-03 14:00:00,
2013-04-03 10:10:00,30.9,19.4,30.20,West,272,7.0,15.0,62,0.00,,,0.00,Wunderground v.1.15,2013-04-03 14:10:00,
2013-04-03 10:20:00,32.2,20.2,30.20,NNW,338,7.0,15.0,61,0.00,,,0.00,Wunderground v.1.15,2013-04-03 14:20:00,
2013-04-03 10:30:00,32.4,19.3,30.20,WNW,292,9.0,9.0,58,0.00,,,0.00,Wunderground v.1.15,2013-04-03 14:30:00,
2013-04-03 10:40:00,31.1,18.0,30.20,West,267,8.0,15.0,58,0.00,,,0.00,Wunderground v.1.15,2013-04-03 14:40:00,
2013-04-03 10:50:00,30.7,19.2,30.21,West,271,6.0,6.0,62,0.00,,,0.00,Wunderground v.1.15,2013-04-03 14:50:00,
2013-04-03 11:00:00,32.1,19.8,30.21,West,271,5.0,15.0,60,0.00,,,0.00,Wunderground v.1.15,2013-04-03 15:00:00,
2013-04-03 11:10:00,33.7,20.9,30.21,NW,316,6.0,15.0,59,0.00,,,0.00,Wunderground v.1.15,2013-04-03 15:10:00,
2013-04-03 11:20:00,31.5,20.3,30.21,WNW,294,8.0,8.0,63,0.00,,,0.00,Wunderground v.1.15,2013-04-03 15:20:00,
2013-04-03 11:30:00,33.2,22.3,30.22,WSW,244,6.0,15.0,64,0.00,,,0.00,Wunderground v.1.15,2013-04-03 15:30:00,
2013-04-03 11:40:00,32.4,21.2,30.22,NW,311,7.0,15.0,63,0.00,,,0.00,Wunderground v.1.15,2013-04-03 15:40:00,
2013-04-03 11:50:00,33.3,21.3,30.23,NNW,336,8.0,8.0,61,0.00,,,0.00,Wunderground v.1.15,2013-04-03 15:50:00,
2013-04-03 12:00:00,34.5,22.0,30.22,SW,227,7.0,15.0,60,0.00,,,0.00,Wunderground v.1.15,2013-04-03 16:00:00,
2013-04-03 12:10:00,34.2,22.1,30.23,West,268,6.0,15.0,61,0.00,,,0.00,Wunderground v.1.15,2013-04-03 16:10:00,
2013-04-03 12:20:00,33.3,20.5,30.23,WSW,253,8.0,15.0,59,0.00,,,0.00,Wunderground v.1.15,2013-04-03 16:20:00,
2013-04-03 12:40:00,33.0,21.0,30.24,WSW,237,8.0,8.0,61,0.00,,,0.00,Wunderground v.1.15,2013-04-03 16:40:00,
2013-04-03 12:50:00,35.4,20.8,30.24,West,267,8.0,15.0,55,0.00,,,0.00,Wunderground v.1.15,2013-04-03 16:50:00,
2013-04-03 13:01:00,31.8,20.6,30.24,NW,306,9.0,15.0,63,0.00,,,0.00,Wunderground v.1.15,2013-04-03 17:01:00,
2013-04-03 13:11:00,32.9,21.3,30.24,NW,319,8.0,8.0,62,0.00,,,0.00,Wunderground v.1.15,2013-04-03 17:11:00,
2013-04-03 13:21:00,33.5,22.2,30.24,NW,321,8.0,15.0,63,0.00,,,0.00,Wunderground v.1.15,2013-04-03 17:21:00,
2013-04-03 13:30:00,35.1,19.7,30.23,NNW,327,10.0,15.0,53,0.00,,,0.00,Wunderground v.1.15,2013-04-03 17:30:00,
2013-04-03 13:40:00,33.6,18.7,30.23,NNW,343,9.0,15.0,54,0.00,,,0.00,Wunderground v.1.15,2013-04-03 17:40:00,
2013-04-03 13:50:00,34.0,18.2,30.23,West,278,9.0,9.0,52,0.00,,,0.00,Wunderground v.1.15,2013-04-03 17:50:00,
2013-04-03 14:00:00,34.3,18.5,30.23,West,276,9.0,15.0,52,0.00,,,0.00,Wunderground v.1.15,2013-04-03 18:00:00,
2013-04-03 14:10:00,34.0,16.8,30.24,NNW,328,9.0,15.0,49,0.00,,,0.00,Wunderground v.1.15,2013-04-03 18:10:00,
2013-04-03 14:20:00,35.5,17.7,30.24,West,267,8.0,15.0,48,0.00,,,0.00,Wunderground v.1.15,2013-04-03 18:20:00,
2013-04-03 14:30:00,35.6,17.8,30.24,West,274,9.0,15.0,48,0.00,,,0.00,Wunderground v.1.15,2013-04-03 18:30:00,
2013-04-03 14:40:00,35.2,17.0,30.24,WNW,299,9.0,9.0,47,0.00,,,0.00,Wunderground v.1.15,2013-04-03 18:40:00,
2013-04-03 14:50:00,35.1,17.4,30.24,WSW,244,9.0,9.0,48,0.00,,,0.00,Wunderground v.1.15,2013-04-03 18:50:00,
2013-04-03 15:00:00,35.2,17.0,30.25,SW,232,10.0,10.0,47,0.00,,,0.00,Wunderground v.1.15,2013-04-03 19:00:00,
2013-04-03 15:10:00,34.8,18.5,30.26,WSW,251,9.0,9.0,51,0.00,,,0.00,Wunderground v.1.15,2013-04-03 19:10:00,
2013-04-03 15:20:00,35.2,17.9,30.25,NW,321,10.0,10.0,49,0.00,,,0.00,Wunderground v.1.15,2013-04-03 19:20:00,
2013-04-03 15:30:00,34.6,17.4,30.26,North,5,7.0,15.0,49,0.00,,,0.00,Wunderground v.1.15,2013-04-03 19:30:00,
2013-04-03 15:40:00,35.6,18.3,30.25,SW,221,8.0,15.0,49,0.00,,,0.00,Wunderground v.1.15,2013-04-03 19:40:00,
2013-04-03 15:50:00,36.0,17.7,30.26,NW,325,9.0,15.0,47,0.00,,,0.00,Wunderground v.1.15,2013-04-03 19:50:00,
2013-04-03 16:01:00,36.4,18.6,30.25,West,272,7.0,15.0,48,0.00,,,0.00,Wunderground v.1.15,2013-04-03 20:01:00,
2013-04-03 16:10:00,36.4,17.1,30.25,WSW,246,10.0,15.0,45,0.00,,,0.00,Wunderground v.1.15,2013-04-03 20:10:00,
2013-04-03 16:20:00,36.3,16.4,30.25,West,278,10.0,15.0,44,0.00,,,0.00,Wunderground v.1.15,2013-04-03 20:20:00,
2013-04-03 16:31:00,36.7,16.3,30.25,West,265,8.0,8.0,43,0.00,,,0.00,Wunderground v.1.15,2013-04-03 20:31:00,
2013-04-03 16:41:00,36.9,15.9,30.25,West,279,9.0,9.0,42,0.00,,,0.00,Wunderground v.1.15,2013-04-03 20:41:00,
2013-04-03 16:51:00,36.5,15.6,30.26,WSW,254,9.0,9.0,42,0.00,,,0.00,Wunderground v.1.15,2013-04-03 20:51:00,
2013-04-03 17:01:00,36.7,15.2,30.26,NNW,336,9.0,15.0,41,0.00,,,0.00,Wunderground v.1.15,2013-04-03 21:01:00,
2013-04-03 17:11:00,36.3,15.9,30.26,WSW,247,10.0,10.0,43,0.00,,,0.00,Wunderground v.1.15,2013-04-03 21:11:00,
2013-04-03 17:21:00,36.4,15.5,30.26,NNW,327,9.0,9.0,42,0.00,,,0.00,Wunderground v.1.15,2013-04-03 21:21:00,
2013-04-03 17:30:00,36.1,14.6,30.26,West,281,9.0,9.0,41,0.00,,,0.00,Wunderground v.1.15,2013-04-03 21:30:00,
2013-04-03 17:40:00,36.2,14.2,30.26,West,270,9.0,15.0,40,0.00,,,0.00,Wunderground v.1.15,2013-04-03 21:40:00,
2013-04-03 17:50:00,36.3,15.9,30.26,West,268,7.0,7.0,43,0.00,,,0.00,Wunderground v.1.15,2013-04-03 21:50:00,
2013-04-03 18:00:00,36.1,13.5,30.27,WSW,238,9.0,9.0,39,0.00,,,0.00,Wunderground v.1.15,2013-04-03 22:00:00,
2013-04-03 18:10:00,35.8,14.4,30.27,NW,315,8.0,15.0,41,0.00,,,0.00,Wunderground v.1.15,2013-04-03 22:10:00,
2013-04-03 18:20:00,35.6,13.6,30.28,West,261,8.0,15.0,40,0.00,,,0.00,Wunderground v.1.15,2013-04-03 22:20:00,
2013-04-03 18:30:00,35.5,14.1,30.28,SSW,197,7.0,7.0,41,0.00,,,0.00,Wunderground v.1.15,2013-04-03 22:30:00,
2013-04-03 18:40:00,35.3,12.8,30.28,NW,322,8.0,15.0,39,0.00,,,0.00,Wunderground v.1.15,2013-04-03 22:40:00,
2013-04-03 18:50:00,35.0,13.6,30.29,West,270,7.0,7.0,41,0.00,,,0.00,Wunderground v.1.15,2013-04-03 22:50:00,
2013-04-03 19:00:00,34.7,14.5,30.29,NNW,343,8.0,8.0,43,0.00,,,0.00,Wunderground v.1.15,2013-04-03 23:00:00,
2013-04-03 19:10:00,34.4,14.2,30.30,NW,321,7.0,15.0,43,0.00,,,0.00,Wunderground v.1.15,2013-04-03 23:10:00,
2013-04-03 19:20:00,33.9,14.8,30.30,WSW,244,6.0,15.0,45,0.00,,,0.00,Wunderground v.1.15,2013-04-03 23:20:00,
2013-04-03 19:30:00,33.4,14.3,30.30,West,270,7.0,15.0,45,0.00,,,0.00,Wunderground v.1.15,2013-04-03 23:30:00,
2013-04-03 19:40:00,33.1,14.5,30.31,WSW,254,6.0,15.0,46,0.00,,,0.00,Wunderground v.1.15,2013-04-03 23:40:00,
2013-04-03 19:50:00,33.1,15.0,30.32,WSW,251,7.0,7.0,47,0.00,,,0.00,Wunderground v.1.15,2013-04-03 23:50:00,
2013-04-03 20:00:00,33.0,14.9,30.32,NNW,330,7.0,7.0,47,0.00,,,0.00,Wunderground v.1.15,2013-04-04 00:00:00,
2013-04-03 20:11:00,32.8,15.7,30.33,West,269,8.0,8.0,49,0.00,,,0.00,Wunderground v.1.15,2013-04-04 00:11:00,
2013-04-03 20:20:00,32.4,15.8,30.33,WNW,287,6.0,15.0,50,0.00,,,0.00,Wunderground v.1.15,2013-04-04 00:20:00,
2013-04-03 20:31:00,32.3,15.7,30.33,WNW,283,6.0,6.0,50,0.00,,,0.00,Wunderground v.1.15,2013-04-04 00:31:00,
2013-04-03 21:01:00,31.7,16.1,30.35,West,262,5.0,5.0,52,0.00,,,0.00,Wunderground v.1.15,2013-04-04 01:01:00,
2013-04-03 21:11:00,31.4,15.8,30.36,WSW,245,5.0,15.0,52,0.00,,,0.00,Wunderground v.1.15,2013-04-04 01:11:00,
2013-04-03 21:30:00,31.3,16.1,30.36,WSW,248,6.0,6.0,53,0.00,,,0.00,Wunderground v.1.15,2013-04-04 01:30:00,
2013-04-03 21:40:00,31.4,16.2,30.36,SW,215,7.0,15.0,53,0.00,,,0.00,Wunderground v.1.15,2013-04-04 01:40:00,
2013-04-03 21:50:00,31.3,16.6,30.37,WSW,242,6.0,15.0,54,0.00,,,0.00,Wunderground v.1.15,2013-04-04 01:50:00,
2013-04-03 22:00:00,31.2,16.9,30.37,West,279,7.0,7.0,55,0.00,,,0.00,Wunderground v.1.15,2013-04-04 02:00:00,
2013-04-03 22:10:00,31.0,16.7,30.37,WSW,238,6.0,15.0,55,0.00,,,0.00,Wunderground v.1.15,2013-04-04 02:10:00,
2013-04-03 22:20:00,31.1,16.4,30.37,West,259,7.0,7.0,54,0.00,,,0.00,Wunderground v.1.15,2013-04-04 02:20:00,
2013-04-03 22:30:00,30.8,16.5,30.37,West,270,5.0,15.0,55,0.00,,,0.00,Wunderground v.1.15,2013-04-04 02:30:00,
2013-04-03 22:40:00,31.2,16.5,30.37,West,259,8.0,8.0,54,0.00,,,0.00,Wunderground v.1.15,2013-04-04 02:40:00,
2013-04-03 22:50:00,31.0,17.1,30.37,West,266,7.0,15.0,56,0.00,,,0.00,Wunderground v.1.15,2013-04-04 02:50:00,
2013-04-03 23:00:00,31.0,17.5,30.37,NNW,348,7.0,7.0,57,0.00,,,0.00,Wunderground v.1.15,2013-04-04 03:00:00,
2013-04-03 23:10:00,30.7,17.7,30.36,West,274,6.0,15.0,58,0.00,,,0.00,Wunderground v.1.15,2013-04-04 03:10:00,
2013-04-03 23:20:00,30.6,18.3,30.36,WSW,258,5.0,15.0,60,0.00,,,0.00,Wunderground v.1.15,2013-04-04 03:20:00,
2013-04-03 23:30:00,30.5,18.6,30.36,West,269,5.0,15.0,61,0.00,,,0.00,Wunderground v.1.15,2013-04-04 03:30:00,
2013-04-03 23:40:00,30.3,18.5,30.36,West,261,5.0,5.0,61,0.00,,,0.00,Wunderground v.1.15,2013-04-04 03:40:00,
2013-04-03 23:50:00,29.9,18.8,30.36,WSW,246,4.0,4.0,63,0.00,,,0.00,Wunderground v.1.15,2013-04-04 03:50:00,